Tracking 22130 objects as of 21-Jan-2021
HD Live streaming from Space Station
objects crossing your sky now

CHANG'E 5


CHANG'E 5 is no longer on orbit


NORAD ID: 47097
Int'l Code: 2020-087A
Perigee: N/A
Apogee: N/A
Inclination: N/A
Period: N/A
Semi major axis: N/A
RCS: N/A
Launch date: November 23, 2020
Source: People's Republic of China (PRC)
Launch site: Wenchang Satellite Launch Center (WSC)
Decay date: 2020-12-16
aabbcc
Your satellite tracking list
Your tracking list is empty




NASA's NSSDC Master Catalog

Two Line Element Set (TLE):
1 47097U 20087A   20351.73216666 -.00107573  87118-3  10000-4 0  9999
2 47097  43.3438  35.4725 9662385  24.7881 359.9966  0.10575492    43
Source of the keplerian elements: AFSPC